Total_Precipitation_Accumulation
0.35 0.40 0.50 0.64 0.74 0.79 0.84 0.91 0.95 1.01 1.19 1.36 1.43 1.43 1.52 1.50 1.46 1.44 1.37 1.28 1.23 1.13 1.00 0.90 0.83 0.83 0.77 0.70 0.62 0.57 0.58 0.57 0.55 0.56 0.53 0.48 0.45 0.42 0.39 0.42 0.54 0.65 0.66
0.38 0.41 0.55 0.70 0.74 0.74 0.82 0.90 0.89 0.92 0.98 1.05 1.21 1.30 1.32 1.36 1.38 1.37 1.41 1.41 1.32 1.20 1.10 1.01 0.91 0.82 0.80 0.76 0.69 0.61 0.57 0.53 0.48 0.52 0.58 0.52 0.47 0.43 0.35 0.30 0.37 0.47 0.55
0.31 0.33 0.46 0.69 0.76 0.75 0.81 0.87 0.89 0.89 0.97 1.05 1.21 1.33 1.46 1.48 1.41 1.33 1.31 1.35 1.33 1.26 1.16 1.07 1.01 0.95 0.87 0.80 0.77 0.71 0.65 0.60 0.53 0.47 0.65 0.70 0.52 0.37 0.27 0.25 0.28 0.30 0.35
0.30 0.31 0.39 0.61 0.75 0.74 0.83 0.93 0.98 1.01 1.01 1.09 1.17 1.15 1.16 1.22 1.17 1.16 1.15 1.25 1.35 1.30 1.21 1.20 1.17 1.05 0.95 0.84 0.77 0.76 0.74 0.74 0.71 0.60 0.55 0.57 0.55 0.58 0.40 0.23 0.21 0.21 0.21
0.29 0.28 0.34 0.53 0.72 0.79 0.87 0.99 1.02 1.09 1.12 1.10 1.15 1.14 1.07 1.04 1.11 1.22 1.27 1.24 1.28 1.35 1.26 1.17 1.16 1.14 1.04 0.96 0.89 0.80 0.80 0.80 0.80 0.75 0.65 0.58 0.51 0.50 0.61 0.41 0.25 0.24 0.23
0.31 0.31 0.35 0.50 0.63 0.73 0.86 0.94 1.05 1.09 1.20 1.17 1.15 1.11 1.03 0.97 1.02 1.10 1.25 1.32 1.30 1.32 1.34 1.24 1.18 1.11 1.03 1.00 1.01 0.95 0.86 0.81 0.80 0.78 0.75 0.75 0.72 0.60 0.63 0.57 0.35 0.30 0.29
0.35 0.35 0.34 0.43 0.52 0.62 0.77 0.86 0.95 1.11 1.17 1.20 1.14 1.09 1.03 0.97 0.96 1.00 1.08 1.15 1.22 1.27 1.28 1.26 1.20 1.12 1.02 0.92 0.94 0.99 0.96 0.90 0.89 0.88 0.83 0.79 0.75 0.69 0.73 0.77 0.61 0.44 0.35
0.35 0.37 0.33 0.37 0.44 0.53 0.64 0.77 0.86 1.03 1.14 1.15 1.16 1.11 1.06 1.00 0.96 0.98 0.99 1.05 1.02 1.07 1.17 1.26 1.27 1.12 1.00 0.94 0.91 0.94 0.95 0.97 0.97 0.92 0.89 0.87 0.77 0.76 0.84 0.92 0.99 0.87 0.55
0.30 0.36 0.33 0.38 0.43 0.52 0.59 0.69 0.81 0.95 1.08 1.16 1.19 1.14 1.09 1.06 0.98 0.98 0.99 1.05 1.02 0.95 1.00 1.12 1.25 1.29 1.20 1.09 1.02 0.99 0.94 0.96 1.00 0.98 0.97 0.97 0.87 0.81 0.80 0.88 1.07 1.32 1.08
0.27 0.31 0.30 0.36 0.45 0.53 0.57 0.64 0.77 0.87 0.98 1.08 1.15 1.17 1.17 1.16 1.09 1.04 0.99 0.96 1.00 1.01 0.97 0.98 1.04 1.13 1.21 1.22 1.17 1.12 1.04 1.01 0.99 1.00 1.04 1.06 1.03 0.99 0.93 0.89 0.92 1.10 1.27
0.26 0.28 0.28 0.34 0.43 0.52 0.55 0.59 0.68 0.83 0.94 1.02 1.07 1.13 1.22 1.19 1.17 1.15 1.08 0.98 0.93 1.00 1.02 1.01 1.06 1.10 1.13 1.15 1.22 1.22 1.18 1.17 1.13 1.09 1.11 1.10 1.12 1.19 1.18 1.13 1.09 1.05 1.14
0.25 0.26 0.28 0.34 0.39 0.46 0.52 0.58 0.64 0.71 0.85 0.98 1.04 1.07 1.18 1.24 1.20 1.22 1.19 1.07 0.96 0.96 1.01 1.05 1.08 1.15 1.18 1.16 1.20 1.24 1.24 1.29 1.26 1.17 1.13 1.13 1.15 1.22 1.25 1.31 1.28 1.17 1.09
0.27 0.26 0.28 0.34 0.39 0.44 0.51 0.55 0.61 0.65 0.74 0.91 0.98 1.06 1.12 1.19 1.20 1.21 1.26 1.22 1.17 1.18 1.15 1.17 1.21 1.24 1.28 1.31 1.34 1.36 1.40 1.45 1.45 1.39 1.34 1.24 1.23 1.28 1.27 1.32 1.34 1.27 1.17
0.28 0.26 0.27 0.32 0.39 0.45 0.49 0.50 0.53 0.63 0.72 0.88 1.00 1.02 1.07 1.12 1.17 1.22 1.25 1.33 1.37 1.43 1.48 1.45 1.42 1.42 1.48 1.60 1.68 1.68 1.68 1.65 1.61 1.57 1.54 1.47 1.40 1.39 1.39 1.42 1.37 1.32 1.32
0.27 0.26 0.28 0.32 0.38 0.44 0.48 0.46 0.48 0.56 0.67 0.82 0.94 1.01 1.07 1.19 1.27 1.32 1.35 1.36 1.45 1.51 1.50 1.53 1.55 1.51 1.67 1.96 2.09 1.95 1.74 1.61 1.54 1.48 1.47 1.51 1.61 1.62 1.66 1.73 1.61 1.52 1.56
0.29 0.29 0.30 0.34 0.39 0.42 0.45 0.43 0.44 0.51 0.61 0.77 0.85 0.94 1.09 1.20 1.34 1.37 1.44 1.45 1.45 1.51 1.52 1.50 1.53 1.51 1.58 2.00 2.11 1.74 1.41 1.33 1.38 1.37 1.30 1.30 1.48 1.55 1.64 1.77 1.77 1.77 1.83
0.29 0.29 0.32 0.37 0.42 0.43 0.42 0.42 0.42 0.47 0.54 0.67 0.78 0.86 1.02 1.13 1.22 1.26 1.29 1.32 1.24 1.21 1.31 1.39 1.35 1.32 1.40 1.76 1.85 1.55 1.13 1.03 1.12 1.16 1.15 1.12 1.19 1.39 1.36 1.48 1.54 1.60 1.73
0.31 0.30 0.31 0.34 0.38 0.42 0.44 0.44 0.43 0.46 0.54 0.62 0.72 0.76 0.89 1.03 1.07 1.13 1.17 1.17 1.10 1.07 1.16 1.20 1.13 1.07 1.12 1.47 1.61 1.41 1.02 0.96 1.02 1.06 1.08 1.07 1.08 1.23 1.43 1.48 1.38 1.30 1.39
0.30 0.30 0.30 0.31 0.33 0.37 0.41 0.43 0.44 0.45 0.50 0.58 0.66 0.69 0.78 0.95 0.96 1.02 1.10 1.08 1.09 1.07 1.04 1.02 0.98 0.92 0.94 1.24 1.53 1.39 0.97 0.99 1.01 1.02 1.09 1.05 0.99 1.28 1.49 1.46 1.39 1.27 1.25
0.27 0.29 0.31 0.29 0.31 0.34 0.35 0.37 0.39 0.41 0.47 0.54 0.62 0.66 0.70 0.82 0.83 0.85 0.92 0.95 0.96 0.99 1.00 0.97 0.91 0.88 0.85 1.06 1.44 1.48 1.04 1.02 0.99 0.99 1.04 1.19 1.17 1.34 1.42 1.33 1.36 1.40 1.23
0.32 0.31 0.32 0.33 0.33 0.35 0.36 0.38 0.38 0.38 0.42 0.47 0.53 0.60 0.66 0.73 0.74 0.76 0.79 0.84 0.88 0.91 0.95 0.96 0.89 0.81 0.81 0.89 1.19 1.55 1.28 1.08 0.99 0.99 1.03 1.07 1.24 1.29 1.36 1.37 1.33 1.46 1.31
0.37 0.35 0.36 0.36 0.36 0.37 0.37 0.36 0.39 0.38 0.39 0.45 0.50 0.56 0.63 0.66 0.68 0.71 0.77 0.78 0.86 0.96 0.99 0.95 0.92 0.84 0.80 0.85 1.03 1.33 1.45 1.29 1.07 1.00 0.88 0.92 1.11 1.16 1.26 1.27 1.32 1.39 1.33
0.36 0.35 0.37 0.40 0.40 0.40 0.39 0.37 0.38 0.38 0.40 0.45 0.49 0.55 0.61 0.61 0.69 0.73 0.78 0.82 0.89 0.98 1.00 0.95 0.91 0.88 0.85 0.91 1.10 1.13 1.20 1.29 1.15 1.07 1.10 1.02 1.08 1.10 1.06 1.11 1.22 1.23 1.17
0.32 0.32 0.35 0.40 0.42 0.42 0.42 0.40 0.40 0.40 0.42 0.46 0.47 0.53 0.62 0.65 0.67 0.72 0.78 0.80 0.84 0.98 1.04 1.01 0.98 0.91 0.87 0.98 1.20 1.14 1.08 1.18 1.19 1.17 1.15 1.11 1.10 1.09 1.04 1.04 1.04 1.02 1.07
0.31 0.30 0.33 0.37 0.41 0.41 0.41 0.41 0.43 0.45 0.47 0.46 0.47 0.52 0.62 0.66 0.65 0.69 0.74 0.78 0.79 0.99 1.18 1.11 1.11 1.08 1.08 1.16 1.38 1.37 1.29 1.31 1.33 1.34 1.32 1.23 1.18 1.16 1.07 1.00 0.95 0.97 1.03
0.30 0.30 0.30 0.33 0.36 0.37 0.39 0.42 0.46 0.49 0.52 0.51 0.51 0.55 0.64 0.66 0.65 0.67 0.72 0.80 0.81 0.88 0.92 0.99 1.08 1.05 1.16 1.22 1.19 1.26 1.30 1.33 1.38 1.41 1.36 1.17 1.06 1.04 0.99 0.96 0.95 0.92 0.91